BEIDOU-3 M3 (C21) (43208 NORAD) Tracking and Keplerian Element Data

This shows tracking and keplerian element data for the satellite.

Feedback or suggestion? Click here.




ElementValue
Catalog43208
NameBEIDOU-3 M3 (C21)
Epoch Orbit4745
Epoch Day34.43705546
Epoch Year2025
RAAN79.6553
Inclination56.2119
Eccentricity0.0008851
Argument of Perigee309
Mean Anonmoly50.9903
Mean Motion1.86231056
Decay Rate-2.3E-07
L11 43208U 18018B 25034.43705546 -.00000023 00000+0 00000+0 0 9997
L22 43208 56.2119 79.6553 0008851 309.0000 50.9903 1.86231056 47450



Live tracking and technical data element details for BEIDOU-3 M3 (C21) (NORAD 43208). BEIDOU-3 M3 (C21) can be tracked NOW for your location showing map with azimuth and elevation plus other details from your city location.







IsCatalogInMostPopularTable: catalog: 43208, numindb: 657
Update: records affected: 1



GetName: 43208 BEIDOU-3 M3 (C21)

Hit Count: updated at: Sat, 17 May 2025 06:40:24 GMT